Wetbulb
65.78 68.33 71.26 71.16 70.57 71.14 71.59 70.99 70.31 70.44 69.73 69.24 69.08 69.03 69.58 69.66 70.70 71.17 71.80 71.44 71.09 70.85 69.39 68.70 68.23 68.23 67.98 67.99 68.27 68.25 68.31 68.50 68.71 68.49 68.25 68.58 68.97 69.21 69.24 69.04 69.06 67.72 70.32
67.34 68.68 70.71 71.68 71.00 71.41 71.43 71.31 70.99 70.53 69.74 69.14 68.93 68.71 68.73 69.40 69.18 70.04 70.65 70.81 71.32 69.54 68.95 67.98 67.76 67.16 67.22 67.10 67.21 67.23 67.42 68.95 68.31 67.59 67.40 67.56 67.16 67.46 67.59 68.23 68.39 66.93 68.60
68.06 68.80 69.87 71.53 71.85 71.44 72.06 71.39 70.91 70.40 69.19 68.75 68.36 68.36 68.39 68.45 69.05 69.36 69.70 70.47 70.55 69.42 68.45 67.31 66.93 66.69 66.50 66.22 66.57 67.06 67.64 68.34 67.94 67.30 66.52 63.01 63.88 66.84 67.11 67.13 67.81 67.58 67.53
68.40 67.99 69.41 70.78 71.84 71.70 71.95 71.31 70.64 70.15 68.86 68.22 67.78 67.52 67.54 67.81 68.57 68.94 69.51 70.61 69.75 68.85 67.41 66.82 66.61 66.34 66.05 66.37 66.55 66.91 68.32 68.05 67.03 65.96 62.97 62.45 63.33 66.65 66.83 66.62 66.69 66.58 66.53
68.31 69.00 69.73 70.82 72.10 71.89 71.67 71.27 70.68 70.03 69.01 67.84 67.13 66.73 66.54 67.04 67.83 68.14 69.29 69.35 68.28 67.16 66.70 66.32 66.07 66.11 66.05 66.28 66.42 66.56 67.70 67.26 65.90 63.64 61.39 61.41 62.10 65.61 66.80 66.24 66.28 66.59 67.20
68.37 69.53 69.68 71.42 72.20 71.74 71.73 71.37 70.80 69.84 68.77 68.18 67.11 66.22 65.84 66.16 67.17 67.55 67.93 67.76 66.55 65.88 65.86 65.51 65.58 65.66 65.64 65.71 66.63 68.43 67.67 66.60 65.47 63.58 64.01 65.14 65.15 68.03 67.71 68.02 66.74 67.19 66.43
68.62 69.75 70.28 71.17 71.52 71.53 71.43 71.37 70.76 70.28 69.29 68.50 67.12 65.80 65.21 65.57 66.10 66.34 66.97 66.09 65.05 64.66 64.51 64.61 64.93 64.85 64.84 64.71 64.84 66.52 66.25 65.03 62.50 61.91 62.40 63.41 64.45 66.91 66.96 66.18 65.90 65.44 65.00
68.76 69.72 70.18 68.66 69.57 70.33 70.68 70.76 70.53 70.25 69.72 68.65 67.22 65.57 64.86 65.17 65.44 65.58 65.66 64.48 63.70 63.36 63.66 64.04 64.20 64.04 63.99 64.42 65.08 65.14 64.73 62.47 59.98 58.91 58.53 59.81 64.72 65.02 65.39 64.60 64.34 64.05 63.80
68.93 68.91 69.05 69.91 68.87 67.59 68.55 69.03 69.58 69.58 69.18 68.80 67.98 66.51 65.53 65.40 65.52 65.56 65.10 63.32 62.40 62.50 63.09 63.52 63.57 63.49 64.09 64.34 64.49 64.10 63.25 62.74 60.86 61.09 61.66 60.22 64.66 65.83 65.41 64.38 63.42 63.12 62.80
67.36 67.90 67.11 67.89 69.09 68.89 68.11 66.13 66.94 67.83 67.93 67.81 66.61 64.87 63.65 63.53 63.48 63.46 62.71 62.87 61.48 61.68 62.45 62.99 62.91 63.29 62.90 63.10 63.51 62.41 61.87 61.77 59.69 60.17 60.99 62.82 65.07 65.11 64.33 63.03 61.80 60.92 60.43
66.61 66.69 67.42 67.63 67.77 68.34 68.68 66.02 65.01 65.82 65.88 65.13 63.74 62.06 60.37 59.69 59.19 60.22 60.71 61.74 61.19 61.22 62.01 62.26 62.08 61.13 60.57 60.96 61.85 61.17 60.65 59.34 58.63 58.63 60.19 63.44 63.88 64.00 63.31 61.76 60.16 59.74 59.12
64.62 65.81 66.68 67.17 67.16 67.90 68.76 67.04 67.60 67.25 66.40 65.00 63.12 61.16 61.55 60.73 60.05 59.25 58.36 60.08 60.70 60.64 61.00 61.50 60.99 60.88 58.23 55.30 56.06 58.31 57.39 56.34 55.99 56.96 59.38 62.33 62.46 62.93 62.15 59.75 59.70 58.71 58.15
64.42 65.86 66.28 66.78 66.95 67.00 67.40 68.09 67.73 67.43 66.69 65.02 62.89 62.15 64.25 59.97 58.15 57.56 56.43 55.78 55.03 55.71 56.18 56.72 57.52 55.58 55.35 54.53 54.15 54.68 54.15 53.15 52.44 53.02 56.54 60.84 61.31 61.09 60.02 59.34 58.57 57.93 57.46
64.32 64.60 66.22 66.99 66.46 67.00 67.32 67.71 67.17 67.20 66.81 65.94 64.57 63.55 62.98 60.25 59.48 56.64 55.95 54.94 53.77 53.02 52.16 53.61 53.73 53.81 53.20 52.90 52.21 52.61 52.35 51.19 52.82 52.68 53.54 58.16 59.88 59.44 59.14 58.58 58.06 57.34 56.63
62.04 63.98 65.15 66.30 66.67 66.99 67.34 67.12 66.79 66.83 66.65 66.29 65.74 64.72 63.96 61.45 60.34 58.04 57.73 56.99 55.64 56.97 54.58 53.35 53.00 51.88 50.97 50.13 49.83 49.77 49.09 48.77 49.88 50.73 49.45 54.68 57.84 57.78 57.97 58.16 57.42 56.88 56.13
62.35 62.70 65.55 65.46 66.75 67.07 67.04 66.59 66.66 66.01 66.84 66.53 66.49 65.78 65.09 62.52 61.37 59.27 56.74 56.79 56.83 56.57 53.93 54.39 51.89 49.51 47.87 46.79 46.27 46.45 45.92 46.22 47.03 47.67 46.59 47.93 55.14 56.25 56.48 56.57 56.50 56.13 55.41
60.97 62.83 63.24 65.12 66.09 65.92 64.55 65.42 65.98 65.90 65.86 65.93 65.65 66.37 65.52 63.58 62.25 60.00 56.51 56.33 57.03 56.28 54.14 50.19 48.82 47.02 43.56 42.81 41.75 41.48 41.68 42.20 43.23 45.12 44.33 44.35 45.46 52.74 54.04 54.46 54.57 54.56 54.21
60.30 61.80 62.91 64.59 65.24 64.53 64.10 64.01 63.76 64.30 64.73 64.96 65.83 65.94 65.64 65.12 63.55 61.25 56.97 56.42 57.68 54.87 50.02 47.41 45.61 44.25 42.58 39.69 39.22 37.86 37.71 38.45 38.85 39.61 40.68 41.48 42.17 43.45 48.28 51.83 52.15 52.55 52.66
59.48 61.34 61.72 62.89 62.84 63.70 63.08 62.72 62.83 62.95 62.98 63.83 64.21 65.62 65.46 65.07 63.56 61.53 59.09 57.17 56.39 52.28 49.45 46.87 43.87 43.27 41.62 40.14 38.75 36.93 36.04 35.74 35.93 37.65 36.37 37.82 40.49 40.45 40.71 47.11 47.83 49.67 50.54
57.84 59.97 61.56 62.37 61.38 60.94 60.94 60.91 60.98 61.05 61.50 62.68 62.71 63.15 64.61 65.19 64.04 61.94 60.81 56.93 54.22 51.31 48.30 45.91 43.71 42.31 41.52 40.37 39.61 37.97 35.06 34.88 34.74 33.48 33.90 35.79 35.15 36.01 36.17 38.43 38.43 41.98 47.67
55.02 57.55 60.75 61.04 60.22 60.18 59.91 59.38 58.55 59.12 59.34 60.38 61.36 61.83 62.80 63.74 64.45 61.98 59.74 56.41 53.93 51.15 48.17 46.02 43.21 40.70 39.57 39.77 36.92 36.20 34.82 34.00 33.46 33.11 32.90 32.47 33.24 33.88 33.69 33.84 34.28 36.02 38.74
53.27 55.92 58.19 59.95 59.57 59.24 59.68 59.49 58.83 58.06 56.89 58.52 57.71 58.26 59.55 60.04 61.45 60.48 58.23 55.48 54.06 51.70 48.26 43.98 41.60 39.42 38.21 38.01 37.14 35.79 30.62 30.43 31.86 33.20 32.23 33.02 30.86 32.09 32.30 33.03 33.01 34.09 34.48
50.05 52.33 55.89 58.13 58.93 58.66 58.37 56.47 53.48 52.78 51.76 52.07 53.70 55.55 56.64 57.36 59.69 59.07 57.28 55.72 54.15 52.14 47.72 42.84 41.36 40.44 37.44 38.38 39.11 39.47 32.09 29.27 28.22 30.48 30.95 31.18 30.69 29.96 29.91 31.18 32.11 33.46 33.75
50.16 51.36 52.80 53.84 54.31 55.74 55.54 54.05 53.39 52.72 51.40 51.95 51.84 51.55 53.58 53.74 56.76 57.65 56.45 55.14 54.04 52.42 48.37 43.54 42.74 42.44 39.81 37.27 38.65 41.41 40.39 33.12 28.52 24.25 29.00 29.61 30.80 30.85 29.60 29.78 30.13 31.82 32.86
48.70 48.41 49.33 50.87 51.23 51.55 53.04 53.23 52.40 50.95 50.44 49.76 49.11 48.91 49.52 50.76 53.54 54.61 54.94 53.93 52.70 51.40 48.44 44.62 42.48 42.42 41.10 40.56 40.08 40.25 38.74 36.77 33.45 27.47 23.54 25.72 27.79 29.58 30.26 29.64 30.34 29.60 31.07
48.27 48.52 48.45 48.76 49.91 50.98 51.45 52.39 51.61 51.36 49.28 48.05 49.00 49.66 49.90 49.08 49.62 50.69 52.31 53.14 52.44 51.34 49.17 45.94 44.30 43.42 42.45 42.25 41.95 41.49 39.41 37.15 32.83 30.08 25.51 24.68 25.92 27.43 29.45 29.74 29.76 29.91 29.37
MSLP
1018.45 1018.69 1018.96 1019.31 1019.49 1019.74 1019.93 1020.03 1020.20 1020.30 1020.32 1020.47 1020.43 1020.52 1020.53 1020.47 1020.37 1020.34 1020.47 1020.51 1020.58 1020.59 1020.81 1021.16 1021.25 1021.28 1021.37 1021.40 1021.40 1021.53 1021.54 1021.44 1021.47 1021.63 1021.68 1021.60 1021.59 1021.58 1021.62 1021.56 1021.33 1021.29 1021.20
1017.84 1018.53 1019.02 1019.43 1019.59 1020.04 1020.05 1020.30 1020.51 1020.59 1020.61 1020.73 1020.78 1020.92 1021.05 1020.99 1020.80 1020.80 1020.94 1021.00 1020.98 1021.16 1021.40 1021.62 1021.80 1021.88 1021.98 1022.05 1021.89 1021.92 1021.91 1021.79 1021.91 1022.05 1022.20 1022.11 1022.13 1022.21 1022.24 1022.17 1022.17 1022.06 1021.94
1017.44 1018.31 1019.01 1019.39 1019.78 1020.14 1020.39 1020.54 1020.72 1020.79 1020.88 1021.05 1021.24 1021.24 1021.35 1021.35 1021.43 1021.29 1021.27 1021.51 1021.45 1021.75 1022.02 1022.15 1022.38 1022.43 1022.48 1022.51 1022.37 1022.21 1022.16 1022.03 1022.21 1022.28 1022.62 1022.77 1022.84 1022.76 1022.89 1022.81 1022.57 1022.46 1022.48
1017.13 1018.15 1018.87 1019.46 1019.83 1020.31 1020.54 1020.71 1020.95 1021.06 1021.17 1021.35 1021.50 1021.59 1021.67 1021.70 1021.72 1021.71 1021.82 1021.87 1021.95 1022.24 1022.44 1022.72 1022.93 1023.02 1023.02 1022.87 1022.77 1022.67 1022.55 1022.49 1022.64 1022.79 1023.01 1023.25 1023.28 1023.32 1023.49 1023.30 1023.24 1023.24 1023.08
1017.01 1017.82 1018.70 1019.42 1019.95 1020.32 1020.65 1020.99 1021.20 1021.31 1021.48 1021.60 1021.79 1021.94 1021.92 1022.01 1022.05 1022.17 1022.26 1022.34 1022.52 1022.74 1022.95 1023.27 1023.30 1023.36 1023.46 1023.35 1023.30 1023.17 1023.07 1023.15 1023.22 1023.31 1023.49 1023.62 1023.75 1023.93 1023.89 1023.96 1024.01 1023.89 1023.79
1017.03 1017.72 1018.77 1019.37 1019.90 1020.42 1020.83 1021.08 1021.32 1021.50 1021.70 1021.77 1022.00 1022.19 1022.30 1022.40 1022.52 1022.59 1022.68 1022.76 1023.04 1023.34 1023.46 1023.64 1023.80 1023.80 1023.98 1023.82 1023.78 1023.63 1023.61 1023.81 1023.97 1023.99 1024.13 1024.11 1024.08 1024.24 1024.34 1024.47 1024.64 1024.47 1024.44
1017.24 1018.12 1018.94 1019.51 1020.01 1020.48 1020.78 1021.13 1021.39 1021.60 1021.77 1022.00 1022.30 1022.49 1022.69 1022.84 1023.00 1023.12 1023.18 1023.30 1023.70 1023.88 1023.90 1024.04 1024.20 1024.23 1024.45 1024.31 1024.26 1024.00 1024.19 1024.26 1024.31 1024.60 1024.68 1024.66 1024.71 1024.84 1024.95 1025.12 1025.32 1025.11 1025.17
1017.53 1018.20 1019.08 1019.63 1020.09 1020.51 1020.93 1021.21 1021.52 1021.78 1022.04 1022.27 1022.59 1022.79 1022.97 1023.15 1023.37 1023.49 1023.68 1023.83 1024.12 1024.15 1024.36 1024.54 1024.67 1024.73 1024.84 1024.69 1024.59 1024.46 1024.53 1024.67 1024.80 1025.15 1025.31 1025.29 1025.18 1025.49 1025.57 1025.84 1025.94 1025.95 1026.09
1017.38 1018.21 1019.19 1019.77 1020.18 1020.61 1020.91 1021.31 1021.64 1021.90 1022.17 1022.49 1022.81 1023.04 1023.25 1023.41 1023.65 1023.86 1024.04 1024.29 1024.44 1024.61 1024.82 1025.05 1025.08 1025.20 1025.30 1025.21 1025.13 1025.02 1025.14 1025.42 1025.47 1025.57 1025.71 1025.69 1025.71 1025.76 1026.10 1026.52 1026.59 1026.70 1026.85
1017.33 1018.08 1019.01 1019.66 1020.17 1020.62 1021.05 1021.39 1021.72 1022.00 1022.35 1022.70 1022.97 1023.26 1023.52 1023.78 1024.04 1024.28 1024.48 1024.63 1024.81 1025.03 1025.32 1025.54 1025.62 1025.73 1025.78 1025.73 1025.73 1025.64 1025.84 1026.06 1026.21 1026.38 1026.35 1026.39 1026.21 1026.37 1026.88 1027.29 1027.43 1027.51 1027.59
1017.54 1018.11 1018.66 1019.31 1019.91 1020.42 1020.95 1021.44 1021.75 1022.12 1022.51 1022.88 1023.22 1023.52 1023.80 1024.08 1024.35 1024.55 1024.85 1025.01 1025.23 1025.49 1025.77 1026.00 1026.13 1026.25 1026.26 1026.27 1026.20 1026.27 1026.56 1026.88 1026.96 1026.96 1026.90 1026.73 1026.74 1027.09 1027.51 1027.89 1027.95 1027.98 1028.19
1017.67 1018.17 1018.52 1018.93 1019.38 1019.89 1020.41 1021.31 1021.78 1022.17 1022.55 1022.91 1023.31 1023.50 1023.54 1023.97 1024.51 1024.85 1025.23 1025.43 1025.66 1025.87 1026.09 1026.29 1026.41 1026.47 1026.57 1026.66 1026.80 1027.07 1027.34 1027.55 1027.61 1027.64 1027.46 1027.23 1027.48 1027.86 1028.11 1028.15 1028.37 1028.62 1028.74
1017.48 1018.04 1018.39 1018.70 1019.15 1019.58 1020.08 1020.73 1021.41 1021.95 1022.41 1022.77 1023.12 1023.27 1023.35 1023.91 1024.55 1025.23 1025.64 1025.97 1026.18 1026.26 1026.35 1026.52 1026.74 1026.81 1026.90 1027.11 1027.35 1027.68 1028.02 1028.23 1028.35 1028.32 1028.25 1028.07 1028.28 1028.40 1028.42 1028.70 1028.97 1029.13 1029.25
1017.08 1017.45 1017.92 1018.25 1018.80 1019.19 1019.75 1020.24 1020.72 1021.30 1021.83 1022.31 1022.67 1022.96 1023.34 1023.86 1024.40 1025.14 1025.55 1025.97 1026.28 1026.45 1026.60 1026.76 1026.91 1027.11 1027.38 1027.63 1027.86 1028.10 1028.43 1028.67 1028.60 1028.95 1029.03 1028.60 1028.65 1028.59 1028.89 1029.19 1029.38 1029.55 1029.74
1016.57 1016.85 1017.26 1017.74 1018.19 1018.73 1019.27 1019.73 1020.13 1020.61 1021.09 1021.51 1022.04 1022.49 1022.87 1023.42 1024.05 1024.54 1025.03 1025.57 1025.86 1026.05 1026.42 1026.92 1027.27 1027.58 1027.84 1028.08 1028.39 1028.70 1029.04 1029.30 1029.54 1029.76 1029.78 1029.31 1029.07 1029.08 1029.22 1029.38 1029.65 1029.91 1030.17
1015.91 1016.26 1016.70 1017.20 1017.65 1018.17 1018.65 1019.13 1019.54 1019.97 1020.33 1020.86 1021.41 1021.86 1022.37 1023.04 1023.55 1024.22 1024.66 1025.24 1025.54 1025.78 1026.31 1026.76 1027.34 1027.93 1028.31 1028.45 1028.83 1029.18 1029.54 1029.81 1030.11 1030.38 1030.36 1030.22 1030.01 1029.78 1029.71 1029.82 1029.96 1030.22 1030.57
1015.16 1015.50 1016.03 1016.64 1017.04 1017.71 1018.31 1018.67 1019.03 1019.48 1019.76 1020.20 1020.74 1021.37 1021.82 1022.49 1023.11 1023.86 1024.49 1024.89 1025.16 1025.69 1026.22 1026.99 1027.66 1028.14 1028.70 1028.98 1029.21 1029.75 1030.06 1030.31 1030.55 1030.76 1030.93 1031.01 1031.00 1030.68 1030.51 1030.46 1030.53 1030.70 1030.98
1014.64 1015.10 1015.51 1016.18 1016.82 1017.52 1017.99 1018.37 1018.53 1018.86 1019.26 1019.66 1020.10 1020.62 1021.26 1021.75 1022.37 1023.29 1024.30 1024.64 1024.90 1025.50 1026.34 1026.98 1027.81 1028.38 1029.08 1029.57 1029.74 1030.24 1030.67 1030.81 1030.97 1031.23 1031.40 1031.57 1031.78 1031.82 1031.55 1031.27 1031.20 1031.21 1031.34
1013.85 1014.41 1015.06 1015.65 1016.32 1017.00 1017.51 1018.00 1018.19 1018.37 1018.82 1019.16 1019.53 1019.99 1020.45 1021.06 1021.72 1022.43 1023.45 1024.20 1024.57 1025.33 1026.09 1026.86 1027.69 1027.87 1028.89 1029.75 1030.14 1030.58 1031.09 1031.39 1031.50 1031.61 1031.93 1032.11 1032.31 1032.55 1032.58 1032.36 1032.22 1031.91 1031.82
1013.15 1013.70 1014.41 1015.12 1015.88 1016.63 1017.26 1017.56 1017.83 1018.18 1018.54 1018.83 1019.16 1019.50 1019.84 1020.44 1021.07 1021.72 1022.48 1023.67 1024.45 1025.15 1026.01 1026.81 1027.45 1028.15 1028.43 1029.21 1030.08 1030.90 1031.51 1031.78 1031.93 1032.24 1032.38 1032.43 1032.67 1032.87 1032.93 1032.95 1032.92 1032.71 1032.49
1012.77 1013.39 1013.79 1014.55 1015.30 1016.15 1016.80 1017.25 1017.59 1017.80 1018.12 1018.49 1018.85 1019.29 1019.38 1019.74 1020.40 1021.11 1022.03 1023.00 1024.00 1024.66 1025.21 1025.95 1027.19 1027.79 1028.56 1028.84 1029.86 1031.17 1031.82 1031.99 1032.20 1032.38 1032.56 1032.79 1032.92 1033.05 1033.15 1033.25 1033.32 1033.35 1033.35
1011.84 1012.56 1013.17 1013.70 1014.53 1015.24 1015.93 1016.41 1016.88 1017.24 1017.58 1017.92 1018.36 1018.88 1019.34 1019.54 1019.95 1020.61 1021.26 1022.33 1023.07 1024.16 1025.02 1025.83 1026.27 1027.57 1028.26 1028.35 1028.77 1030.22 1031.74 1032.53 1032.32 1032.28 1032.56 1032.76 1033.09 1033.08 1033.17 1033.26 1033.36 1033.56 1033.82
1011.26 1011.91 1012.59 1013.00 1013.59 1014.43 1015.26 1016.05 1016.61 1017.17 1017.57 1017.94 1018.21 1018.55 1018.93 1019.49 1019.65 1020.06 1020.59 1021.49 1022.30 1023.22 1024.00 1024.71 1025.62 1026.02 1026.99 1027.75 1027.74 1027.83 1030.37 1030.95 1031.91 1032.32 1032.51 1032.69 1032.93 1033.16 1033.30 1033.36 1033.52 1033.69 1033.94
1010.27 1010.99 1011.80 1012.61 1013.33 1014.07 1014.74 1015.37 1015.77 1015.99 1016.67 1016.96 1017.51 1018.24 1018.90 1019.40 1019.38 1019.49 1019.93 1020.68 1021.39 1022.34 1023.27 1023.91 1024.58 1025.03 1026.14 1026.23 1027.19 1026.95 1027.39 1028.37 1030.44 1032.27 1032.48 1032.47 1032.58 1032.82 1033.20 1033.48 1033.67 1033.79 1034.01
1009.93 1010.64 1011.41 1012.09 1012.77 1013.31 1014.02 1014.51 1015.15 1015.74 1016.13 1016.53 1017.29 1018.06 1018.66 1019.28 1019.33 1019.21 1019.44 1019.88 1020.60 1021.38 1022.30 1023.19 1023.73 1024.74 1024.63 1025.43 1025.03 1025.91 1027.17 1027.69 1028.20 1029.94 1031.48 1031.95 1032.40 1032.57 1032.85 1033.14 1033.48 1033.82 1033.95
1009.86 1010.61 1011.28 1011.83 1012.30 1012.78 1013.35 1013.95 1014.41 1014.90 1015.47 1016.18 1016.70 1017.45 1018.12 1018.78 1019.05 1018.90 1018.86 1019.18 1019.78 1020.41 1021.17 1022.22 1022.81 1023.21 1023.58 1024.65 1024.46 1024.72 1025.38 1026.30 1027.13 1028.23 1029.93 1031.32 1032.04 1032.25 1032.50 1032.79 1033.14 1033.46 1033.65
Wind_Speed
6 9 11 10 10 10 11 12 11 11 12 13 14 14 14 14 13 14 16 18 20 21 21 20 20 20 19 20 20 19 21 23 24 23 23 24 24 25 25 24 22 19 25
11 13 12 9 10 11 12 11 11 11 13 13 14 14 13 14 14 14 16 16 19 20 21 19 20 20 20 18 18 17 16 13 19 21 21 22 23 23 23 22 21 20 25
13 13 11 10 11 11 11 11 11 12 14 14 13 14 14 14 13 13 16 16 19 21 19 20 19 19 19 17 16 16 14 13 16 18 17 11 15 24 24 23 23 25 26
13 13 12 12 13 13 12 12 11 12 13 13 14 14 14 14 14 14 14 16 20 19 19 18 18 19 18 17 15 14 15 21 21 18 11 11 14 23 24 25 25 25 25
11 14 13 13 14 13 13 13 12 13 13 14 14 14 15 15 15 14 15 19 19 19 17 17 18 18 16 15 14 12 11 20 18 14 9 8 11 19 23 23 22 23 23
9 13 15 14 14 14 13 13 13 13 13 14 14 14 15 15 14 14 16 16 19 16 17 18 17 18 15 14 16 23 24 24 17 11 10 12 12 25 26 27 25 25 25
11 13 12 14 14 14 13 13 13 13 14 14 14 14 14 15 15 15 16 18 17 16 17 18 18 17 14 14 15 16 19 16 13 11 10 11 14 25 26 24 25 26 26
11 12 10 11 13 13 13 13 13 13 13 14 14 15 15 15 15 15 16 17 17 17 18 18 18 17 15 17 17 16 11 13 10 8 7 7 17 21 23 22 22 24 25
12 11 10 9 10 11 12 11 12 13 13 13 13 13 13 13 14 14 15 16 17 17 18 18 18 17 17 19 21 21 22 19 11 7 7 4 15 23 25 24 23 23 23
9 11 11 9 9 8 7 11 11 12 12 12 13 12 12 12 12 12 11 15 17 17 17 18 17 17 16 16 16 17 16 14 8 6 5 9 22 25 25 22 23 23 23
8 7 8 10 10 9 9 8 10 12 12 12 12 13 10 6 9 7 9 14 16 16 17 17 16 15 12 12 14 15 11 6 6 4 4 18 22 22 23 22 21 22 23
8 7 7 7 8 10 9 10 8 8 7 8 7 10 8 8 7 8 8 12 14 14 16 17 16 11 7 4 5 9 6 7 5 5 6 17 21 21 21 19 21 21 21
7 8 8 8 7 7 6 8 5 5 6 6 9 7 5 8 9 5 5 4 4 6 5 7 5 2 7 5 5 5 6 5 4 5 10 17 18 17 18 19 20 20 21
13 11 10 11 9 8 6 7 7 7 6 6 8 8 7 6 8 7 5 6 5 3 5 4 4 6 7 7 7 7 7 5 6 6 9 9 13 17 18 18 19 19 20
10 10 13 10 10 9 10 7 6 8 8 9 9 8 8 7 6 8 7 6 5 5 5 5 5 5 6 7 7 7 8 7 7 5 5 14 14 16 17 17 18 18 18
12 10 14 14 12 11 9 9 7 5 9 8 8 9 11 7 7 6 7 6 4 4 5 5 6 5 5 6 7 6 6 6 6 6 5 8 15 13 15 16 17 17 17
8 10 10 14 13 10 7 6 6 6 5 6 5 10 12 11 9 8 6 7 6 5 8 8 7 5 5 5 8 6 5 6 6 6 5 5 7 14 14 15 15 16 15
9 10 10 9 11 10 10 7 5 6 5 5 6 8 12 12 13 11 7 7 7 7 7 7 7 6 5 4 6 5 5 5 6 6 5 5 5 6 8 14 14 14 14
10 10 11 10 11 11 9 6 6 6 5 5 5 7 11 12 12 11 10 6 9 8 8 8 7 9 8 4 7 6 5 4 4 5 6 6 7 5 4 13 14 12 12
10 9 11 10 11 9 5 5 4 5 4 4 4 4 10 9 14 11 10 11 9 9 8 8 10 5 7 8 8 7 5 4 4 4 5 4 5 5 3 5 5 5 12
10 10 14 13 13 10 8 8 6 8 4 3 4 4 6 7 13 13 9 12 11 11 11 11 9 11 7 9 7 5 4 4 4 4 4 4 4 4 4 4 3 3 4
14 11 11 14 13 13 10 9 7 6 4 4 4 5 5 5 8 11 13 12 14 10 12 12 13 9 3 8 5 4 4 2 1 3 4 4 5 4 4 4 5 5 5
12 12 12 14 16 15 12 6 3 2 2 3 5 6 6 6 9 12 13 13 13 12 12 15 15 15 10 10 11 6 4 5 4 2 4 4 6 4 4 5 5 4 5
15 12 10 10 9 11 12 10 13 11 10 7 5 4 7 7 9 12 14 14 15 11 13 13 13 12 8 14 6 3 3 7 5 3 3 4 5 6 6 4 4 4 5
8 9 9 9 9 10 13 12 10 9 6 4 5 7 8 8 10 10 13 14 15 11 13 14 16 12 10 10 9 7 3 3 5 5 4 4 2 4 5 5 5 4 4
7 8 9 10 9 11 12 13 13 13 8 6 7 8 7 6 7 9 11 12 13 13 15 14 14 16 13 10 7 8 7 6 5 5 4 3 5 4 4 5 5 5 5
Wind_Direction
174 141 139 149 151 139 131 115 109 105 102 95 90 84 81 74 68 58 68 78 86 81 79 75 72 70 73 72 76 75 79 83 79 72 71 68 66 63 60 55 55 57 56
150 140 147 150 135 145 124 119 115 105 100 97 94 91 88 84 77 65 73 85 84 82 79 77 73 75 75 75 76 73 73 91 82 79 69 66 69 69 67 65 64 64 62
154 133 144 142 138 133 126 120 114 111 104 100 97 95 91 89 83 74 76 89 84 83 83 78 77 78 77 78 73 65 58 77 91 83 79 73 71 69 69 70 69 69 68
138 138 143 144 137 141 132 121 117 110 106 104 101 99 99 94 93 83 75 89 89 87 84 83 83 82 82 85 75 60 59 66 60 73 68 66 69 73 72 70 70 68 66
145 144 136 140 143 141 133 129 121 114 113 107 103 100 97 98 97 93 84 90 91 88 90 88 88 87 85 76 57 40 52 78 74 68 70 74 79 78 78 78 72 71 70
143 127 137 140 143 144 140 132 125 120 115 109 105 103 100 101 101 98 95 91 89 95 95 94 91 89 85 72 57 75 73 74 64 56 57 67 81 80 77 73 76 71 66
128 122 135 138 146 147 143 138 132 127 119 113 111 108 106 107 106 105 100 96 101 102 98 97 93 90 83 65 54 74 91 78 71 63 66 68 74 77 74 72 69 70 71
119 129 133 141 147 148 149 143 137 130 125 120 118 117 116 113 112 110 107 107 108 105 103 100 98 94 82 63 55 59 72 79 79 74 58 67 76 81 79 76 73 71 68
137 133 141 155 155 153 149 146 141 136 129 127 124 118 113 110 109 109 110 110 109 108 107 104 100 98 82 74 68 66 67 65 63 63 74 63 93 91 85 79 73 75 73
140 140 149 158 156 156 155 153 147 139 135 124 116 112 107 103 103 102 104 114 114 112 111 106 104 94 77 71 73 67 62 61 58 52 54 86 92 88 84 81 78 78 76
141 136 156 159 165 163 158 161 149 146 137 128 127 129 124 130 121 108 108 115 116 117 115 111 105 93 73 66 70 60 62 61 59 51 79 89 86 84 86 87 82 74 72
143 154 153 153 169 166 160 151 158 154 152 150 152 165 149 143 122 105 103 110 113 117 121 122 123 116 82 67 70 64 64 53 47 41 65 79 81 90 91 85 79 79 77
178 174 168 168 176 160 155 158 166 164 166 162 165 193 139 120 121 118 115 100 108 118 128 128 132 89 78 68 63 90 77 58 50 44 26 86 97 98 91 83 82 82 78
191 185 178 177 176 169 161 170 173 169 175 169 170 198 132 135 142 145 147 151 156 154 156 118 89 81 72 67 64 65 77 62 57 49 29 63 89 92 89 87 86 81 79
191 183 182 172 180 181 181 175 179 178 178 177 178 185 153 156 155 160 154 167 168 159 132 112 101 94 93 81 68 70 74 69 69 56 41 43 77 93 96 94 87 82 78
189 190 178 186 187 190 186 181 184 193 179 173 180 178 166 162 161 149 145 159 155 130 121 130 121 115 100 102 87 74 77 80 77 70 49 40 51 81 90 90 89 85 82
193 184 177 182 189 177 191 191 174 192 170 178 172 173 174 170 170 155 156 160 160 136 127 109 102 93 97 99 101 84 79 77 77 86 71 53 37 48 81 89 87 86 85
189 181 176 176 181 181 190 212 191 174 182 178 175 173 182 176 171 156 163 172 159 132 126 125 134 124 113 119 120 103 91 84 80 72 76 76 57 38 48 81 84 87 87
194 181 184 177 183 188 185 191 197 188 185 183 176 178 181 176 173 161 169 163 150 140 144 148 143 148 141 131 121 106 101 97 93 79 74 75 89 74 44 70 55 70 83
193 190 188 179 178 182 184 187 186 182 198 191 191 180 171 181 175 169 172 153 154 150 148 150 147 147 141 140 123 103 95 96 101 106 108 89 100 114 108 80 53 43 76
191 196 190 182 180 178 190 192 191 196 188 173 164 165 184 170 183 171 162 159 162 168 166 159 143 147 146 137 117 86 65 96 116 135 131 124 121 120 116 113 114 83 60
194 194 191 191 180 188 194 196 197 185 193 175 168 178 198 181 169 171 167 170 171 164 159 161 153 147 128 177 131 123 138 323 249 178 149 149 152 146 137 119 109 106 107
185 191 197 197 191 190 190 173 159 131 121 158 184 196 197 194 192 177 171 175 172 172 172 172 168 167 168 197 183 144 147 200 135 201 181 172 166 163 153 138 129 123 125
196 186 185 191 188 187 185 187 193 196 195 205 184 168 183 204 203 186 179 174 176 177 177 179 176 180 167 186 191 234 105 137 160 159 233 198 180 175 167 170 156 160 146
178 179 178 176 185 184 191 194 192 201 197 156 160 171 183 196 212 193 182 178 178 179 179 183 174 188 180 197 189 148 134 199 136 142 174 196 206 184 175 174 166 163 172
158 163 175 182 194 190 191 197 195 200 181 183 175 180 185 196 205 201 187 183 181 182 179 184 188 191 184 205 191 182 167 171 182 151 130 125 171 210 168 174 167 171 189